Location: Goettingen
(51.5300°N, 9.9433°E)
Time: 14:06:10
(UTC+02:00)

ISS - Pass Details

Date: 20 May 2018
Orbit: 402 x 407 km, 51.6° (Epoch: 25 May)

Event Time Altitude Azimuth Distance (km) Brightness Sun altitude
Exits shadow 01:38:50 24° 265° (W) 880 -2.3 -18.4°
Maximum altitude 01:40:39 89° 348° (NNW) 408 -3.9 -18.4°
Drops below altitude 10° 01:43:55 10° 85° (E) 1,458 -0.9 -18.3°
Sets 01:46:00 0° 85° (E) 2,318 0.2 -18.3°
